Location: Aranbee
(34.0885°N, 118.2342°W)
Time: 23:21:46
(UTC+00:00)

A-11 Canister half - Pass Details

Date: 06 August 2021
Orbit: 1515 x 1685 km, 47.2° (Epoch: 22 September)

Event Time Altitude Azimuth Distance (km) Brightness Sun altitude
Rises 03:18:43 0° 296° (WNW) 4,842 14.5 -6.3°
Reaches altitude 10° 03:22:07 10° 303° (WNW) 3,878 12.8 -7.0°
Maximum altitude 03:31:25 42° 12° (NNE) 2,248 10.0 -8.7°
Drops below altitude 10° 03:40:54 10° 81° (E) 3,948 10.7 -10.4°
Enters shadow 03:42:46 - 85° (E) 4,475 10.9 -10.8°
